TimeEDT,TemperatureF,Dew PointF,Humidity,Sea Level PressureIn,VisibilityMPH,Wind Direction,Wind SpeedMPH,Gust SpeedMPH,PrecipitationIn,Events,Conditions,WindDirDegrees,DateUTC
12:15 AM,68.0,68.0,100,30.23,10.0,Calm,Calm,-,N/A,,Overcast,0,2013-08-19 04:15:00
12:35 AM,68.0,68.0,100,30.22,10.0,NE,3.5,-,N/A,,Overcast,40,2013-08-19 04:35:00
12:55 AM,68.0,68.0,100,30.22,10.0,Calm,Calm,-,N/A,,Overcast,0,2013-08-19 04:55:00
1:15 AM,68.0,68.0,100,30.21,10.0,NE,3.5,-,N/A,,Overcast,50,2013-08-19 05:15:00
1:35 AM,68.0,68.0,100,30.20,10.0,NE,3.5,-,N/A,,Overcast,50,2013-08-19 05:35:00
1:55 AM,68.2,68.2,100,30.19,3.0,NE,3.5,-,N/A,,Overcast,50,2013-08-19 05:55:00
2:15 AM,68.4,68.4,100,30.19,4.0,NE,3.5,-,N/A,,Overcast,50,2013-08-19 06:15:00
2:35 AM,68.5,68.5,100,30.18,10.0,Calm,Calm,-,N/A,,Overcast,0,2013-08-19 06:35:00
2:55 AM,68.5,68.5,100,30.17,10.0,Calm,Calm,-,N/A,,Mostly Cloudy,0,2013-08-19 06:55:00
3:15 AM,68.4,68.4,100,30.17,10.0,Calm,Calm,-,N/A,,Mostly Cloudy,0,2013-08-19 07:15:00
3:35 AM,68.5,68.5,100,30.17,10.0,Calm,Calm,-,N/A,,Mostly Cloudy,0,2013-08-19 07:35:00
3:55 AM,68.7,68.7,100,30.16,7.0,Calm,Calm,-,N/A,,Overcast,0,2013-08-19 07:55:00
4:15 AM,68.9,68.9,100,30.16,4.0,Calm,Calm,-,N/A,,Overcast,0,2013-08-19 08:15:00
4:35 AM,69.3,69.3,100,30.16,10.0,Calm,Calm,-,N/A,,Overcast,0,2013-08-19 08:35:00
4:55 AM,69.3,69.3,100,30.16,10.0,Calm,Calm,-,N/A,,Overcast,0,2013-08-19 08:55:00
5:15 AM,69.3,69.3,100,30.16,10.0,Calm,Calm,-,N/A,,Overcast,0,2013-08-19 09:15:00
5:35 AM,69.3,69.3,100,30.15,10.0,Calm,Calm,-,N/A,,Overcast,0,2013-08-19 09:35:00
5:55 AM,69.1,69.1,100,30.15,10.0,Calm,Calm,-,N/A,,Overcast,0,2013-08-19 09:55:00
6:15 AM,69.3,69.3,100,30.16,10.0,Calm,Calm,-,N/A,,Overcast,0,2013-08-19 10:15:00
6:35 AM,69.3,69.3,100,30.16,10.0,Calm,Calm,-,N/A,,Overcast,0,2013-08-19 10:35:00
6:55 AM,69.1,69.1,100,30.15,10.0,Calm,Calm,-,N/A,,Scattered Clouds,0,2013-08-19 10:55:00
7:15 AM,69.1,69.1,100,30.16,10.0,Calm,Calm,-,N/A,,Mostly Cloudy,0,2013-08-19 11:15:00
7:35 AM,69.4,69.4,100,30.16,7.0,Calm,Calm,-,N/A,,Overcast,0,2013-08-19 11:35:00
7:55 AM,69.8,69.8,100,30.16,10.0,Calm,Calm,-,N/A,,Overcast,0,2013-08-19 11:55:00
8:15 AM,69.8,69.8,100,30.17,4.0,Calm,Calm,-,N/A,,Overcast,0,2013-08-19 12:15:00
8:35 AM,69.8,69.8,100,30.17,10.0,Calm,Calm,-,N/A,,Overcast,0,2013-08-19 12:35:00
8:55 AM,70.2,70.2,100,30.18,10.0,NE,4.6,-,N/A,,Overcast,50,2013-08-19 12:55:00
9:15 AM,70.5,70.5,100,30.18,10.0,ENE,3.5,-,N/A,,Overcast,60,2013-08-19 13:15:00
9:35 AM,70.2,70.2,100,30.18,1.2,Calm,Calm,-,N/A,,Overcast,0,2013-08-19 13:35:00
9:55 AM,70.5,70.5,100,30.18,7.0,Calm,Calm,-,N/A,,Overcast,0,2013-08-19 13:55:00
10:15 AM,70.7,70.7,100,30.19,7.0,Calm,Calm,-,N/A,,Overcast,0,2013-08-19 14:15:00
10:35 AM,71.1,71.1,100,30.19,10.0,Calm,Calm,-,N/A,,Overcast,0,2013-08-19 14:35:00
10:55 AM,71.2,71.2,100,30.19,7.0,East,3.5,-,N/A,,Overcast,80,2013-08-19 14:55:00
11:15 AM,72.1,72.1,100,30.19,10.0,NE,3.5,-,N/A,,Overcast,50,2013-08-19 15:15:00
11:35 AM,72.5,72.5,100,30.20,10.0,Calm,Calm,-,N/A,,Overcast,0,2013-08-19 15:35:00
11:55 AM,73.0,73.0,100,30.19,10.0,ENE,4.6,-,N/A,,Overcast,60,2013-08-19 15:55:00
12:15 PM,73.2,73.2,100,30.19,10.0,Calm,Calm,-,N/A,,Overcast,0,2013-08-19 16:15:00
12:35 PM,73.2,73.2,100,30.19,10.0,Calm,Calm,-,N/A,,Overcast,0,2013-08-19 16:35:00
12:55 PM,73.4,73.4,100,30.19,10.0,NNE,4.6,-,N/A,,Overcast,30,2013-08-19 16:55:00
1:15 PM,73.4,73.4,100,30.19,10.0,NNE,4.6,-,N/A,,Overcast,20,2013-08-19 17:15:00
1:35 PM,73.0,73.0,100,30.18,5.0,NE,5.8,-,N/A,,Overcast,40,2013-08-19 17:35:00
1:55 PM,74.3,74.1,99,30.18,10.0,NNE,4.6,-,N/A,,Overcast,30,2013-08-19 17:55:00
2:15 PM,75.0,74.1,97,30.16,10.0,NNE,4.6,-,N/A,,Overcast,30,2013-08-19 18:15:00
2:35 PM,76.3,74.8,95,30.16,10.0,NNE,4.6,-,N/A,,Overcast,30,2013-08-19 18:35:00
2:55 PM,76.1,74.5,95,30.15,10.0,NE,6.9,-,N/A,,Overcast,40,2013-08-19 18:55:00
3:15 PM,77.5,74.8,91,30.14,10.0,East,6.9,-,N/A,,Mostly Cloudy,80,2013-08-19 19:15:00
3:35 PM,77.0,74.3,91,30.14,10.0,ENE,3.5,-,N/A,,Mostly Cloudy,70,2013-08-19 19:35:00
3:55 PM,77.2,74.5,91,30.14,10.0,NE,5.8,-,N/A,,Overcast,40,2013-08-19 19:55:00
4:15 PM,77.9,75.0,91,30.13,10.0,NE,5.8,-,N/A,,Overcast,40,2013-08-19 20:15:00
4:35 PM,78.1,74.7,89,30.13,10.0,NE,4.6,-,N/A,,Overcast,40,2013-08-19 20:35:00
4:55 PM,78.1,75.2,91,30.12,10.0,NE,6.9,-,N/A,,Overcast,40,2013-08-19 20:55:00
5:15 PM,79.0,75.2,88,30.11,10.0,NNE,6.9,-,N/A,,Overcast,30,2013-08-19 21:15:00
5:35 PM,77.4,74.5,91,30.12,10.0,NE,4.6,-,N/A,,Overcast,40,2013-08-19 21:35:00
5:55 PM,77.7,74.3,89,30.12,10.0,ENE,4.6,-,N/A,,Overcast,60,2013-08-19 21:55:00
6:15 PM,76.6,74.1,92,30.13,10.0,ENE,5.8,-,N/A,,Overcast,70,2013-08-19 22:15:00
6:35 PM,76.6,74.1,92,30.14,10.0,ENE,5.8,-,N/A,,Overcast,60,2013-08-19 22:35:00
6:55 PM,76.5,74.3,93,30.13,10.0,ENE,4.6,-,N/A,,Mostly Cloudy,70,2013-08-19 22:55:00
7:15 PM,76.6,73.9,91,30.13,10.0,NE,3.5,-,N/A,,Scattered Clouds,50,2013-08-19 23:15:00
7:35 PM,76.1,73.9,93,30.14,10.0,Calm,Calm,-,N/A,,Clear,0,2013-08-19 23:35:00
7:55 PM,75.4,74.1,96,30.14,10.0,Calm,Calm,-,N/A,,Clear,0,2013-08-19 23:55:00
8:15 PM,74.5,74.3,99,30.14,10.0,Calm,Calm,-,N/A,,Clear,0,2013-08-20 00:15:00
8:35 PM,73.9,73.9,100,30.14,10.0,Calm,Calm,-,N/A,,Clear,0,2013-08-20 00:35:00
8:55 PM,73.4,73.4,100,30.13,10.0,Calm,Calm,-,N/A,,Clear,0,2013-08-20 00:55:00
9:15 PM,73.4,73.4,100,30.13,10.0,Calm,Calm,-,N/A,,Clear,0,2013-08-20 01:15:00
9:35 PM,73.4,73.4,100,30.14,10.0,Calm,Calm,-,N/A,,Clear,0,2013-08-20 01:35:00
9:55 PM,72.9,72.9,100,30.15,10.0,Calm,Calm,-,N/A,,Clear,0,2013-08-20 01:55:00
10:15 PM,72.7,72.7,100,30.15,10.0,Calm,Calm,-,N/A,,Clear,0,2013-08-20 02:15:00
10:35 PM,72.7,72.7,100,30.16,10.0,Calm,Calm,-,N/A,,Clear,0,2013-08-20 02:35:00
10:55 PM,72.5,72.5,100,30.16,10.0,Calm,Calm,-,N/A,,Mostly Cloudy,0,2013-08-20 02:55:00
11:15 PM,72.9,72.9,100,30.16,10.0,Calm,Calm,-,N/A,,Overcast,0,2013-08-20 03:15:00
11:35 PM,72.9,72.9,100,30.16,10.0,Calm,Calm,-,N/A,,Mostly Cloudy,0,2013-08-20 03:35:00
11:55 PM,72.5,72.5,100,30.16,10.0,Calm,Calm,-,N/A,,Mostly Cloudy,0,2013-08-20 03:55:00